CPA288 EDDF-VHHH

Flight info

Callsign CPA288
Flight time N/A
Altitude 31000
Route SULUS7S SULUS Z650 VEMUT DCT PEPIK DCT NORAH DCT BUDOP DCT LUGEB/N0488F330 DCT UDROS UM859 KARDE UL851 TBN UM11 REBLO M11 LUSAL N199 RASAM L88 METKA B476 TIMGA/N0485F350 B476 DARVA/K0898F350 T898 OGOLI N193 SR L163 TISIB L141 KAMUD/K0896S1070 W186 SADAN Y1 NUPNI/K0902S1130 Y1 OMBON W245 OVRAL B330 KWE W181 DUDIT A599 POU R473 SIERA
Aircraft B77W/H-SDE1E2E3FGHIJ2J3J4J5M1RWXY/LB1D1

Departure

Time N/A
Airport Frankfurt Main Airport (EDDF)

Arrival

Time 2026-05-05 22:52
Airport Hong Kong International Airport (VHHH)
Time Latitude Longitude Altitude Speed Heading
2026-05-05 22:31 22.96553 113.20284 34672 ft 533 kts 148°
2026-05-05 22:31 22.93373 113.22280 34288 ft 526 kts 163°
2026-05-05 22:31 22.89942 113.23485 33831 ft 521 kts 169°
2026-05-05 22:31 22.86446 113.24583 33373 ft 524 kts 169°
2026-05-05 22:32 22.82965 113.25700 32883 ft 528 kts 168°
2026-05-05 22:32 22.79441 113.26874 32402 ft 531 kts 167°
2026-05-05 22:32 22.75906 113.28087 31917 ft 534 kts 166°
2026-05-05 22:32 22.72361 113.29324 31431 ft 536 kts 166°
2026-05-05 22:33 22.68815 113.30565 30957 ft 539 kts 166°
2026-05-05 22:33 22.65243 113.31808 30499 ft 540 kts 166°
2026-05-05 22:33 22.61680 113.33043 30155 ft 539 kts 165°
2026-05-05 22:33 22.58114 113.34276 29764 ft 535 kts 165°
2026-05-05 22:34 22.54591 113.35494 29335 ft 529 kts 165°
2026-05-05 22:34 22.51147 113.36684 28876 ft 523 kts 165°
2026-05-05 22:34 22.47702 113.37873 28337 ft 518 kts 165°
2026-05-05 22:34 22.44281 113.39053 27750 ft 512 kts 165°
2026-05-05 22:35 22.40914 113.40214 27182 ft 505 kts 165°
2026-05-05 22:35 22.37580 113.41363 26621 ft 499 kts 165°
2026-05-05 22:35 22.34327 113.42484 26074 ft 493 kts 165°
2026-05-05 22:35 22.31077 113.43603 25547 ft 487 kts 166°
2026-05-05 22:36 22.27869 113.44706 25010 ft 482 kts 166°
2026-05-05 22:36 22.24695 113.45798 24502 ft 476 kts 166°
2026-05-05 22:36 22.21571 113.46874 23999 ft 471 kts 166°
2026-05-05 22:36 22.18474 113.47983 23492 ft 466 kts 165°
2026-05-05 22:37 22.15423 113.49109 22915 ft 457 kts 164°
2026-05-05 22:37 22.12485 113.50204 22369 ft 437 kts 164°
2026-05-05 22:37 22.09680 113.51245 21857 ft 421 kts 165°
2026-05-05 22:37 22.06937 113.52253 21351 ft 415 kts 165°
2026-05-05 22:38 22.04212 113.53247 20875 ft 412 kts 165°
2026-05-05 22:38 22.01492 113.54239 20409 ft 410 kts 165°
2026-05-05 22:38 21.98807 113.55220 19946 ft 408 kts 164°
2026-05-05 22:38 21.96155 113.56298 19480 ft 407 kts 160°
2026-05-05 22:39 21.93553 113.57502 19030 ft 406 kts 159°
2026-05-05 22:39 21.91013 113.58716 18591 ft 404 kts 159°
2026-05-05 22:39 21.88458 113.59930 18140 ft 402 kts 159°
2026-05-05 22:39 21.85917 113.61120 17616 ft 393 kts 159°
2026-05-05 22:40 21.83456 113.62261 16994 ft 377 kts 160°
2026-05-05 22:40 21.81092 113.63354 16390 ft 363 kts 158°
2026-05-05 22:40 21.79037 113.64861 15766 ft 357 kts 134°
2026-05-05 22:40 21.77817 113.67139 15188 ft 351 kts 108°
2026-05-05 22:41 21.77484 113.69713 14585 ft 346 kts 88°
2026-05-05 22:41 21.77883 113.72242 13945 ft 342 kts 70°
2026-05-05 22:41 21.78938 113.74494 13207 ft 338 kts 51°
2026-05-05 22:41 21.80587 113.76240 12475 ft 331 kts 31°
2026-05-05 22:42 21.82596 113.77342 11800 ft 323 kts 15°
2026-05-05 22:42 21.84761 113.77769 11153 ft 313 kts 357°
2026-05-05 22:42 21.86920 113.77761 10563 ft 308 kts 355°
2026-05-05 22:42 21.89048 113.77725 9994 ft 304 kts 356°
2026-05-05 22:43 21.91123 113.77690 9361 ft 301 kts 356°
2026-05-05 22:43 21.93215 113.77664 8760 ft 299 kts 356°
2026-05-05 22:43 21.95282 113.77643 8147 ft 296 kts 357°
2026-05-05 22:43 21.97329 113.77628 7548 ft 293 kts 357°
2026-05-05 22:44 21.99358 113.77617 7022 ft 289 kts 357°
2026-05-05 22:44 22.01353 113.77608 6562 ft 284 kts 358°
2026-05-05 22:44 22.03323 113.77601 6159 ft 281 kts 357°
2026-05-05 22:44 22.05300 113.77592 5783 ft 285 kts 359°
2026-05-05 22:45 22.07292 113.77585 5393 ft 287 kts 358°
2026-05-05 22:45 22.09242 113.77577 5033 ft 276 kts 359°
2026-05-05 22:45 22.11119 113.77410 4566 ft 267 kts 341°
2026-05-05 22:45 22.12766 113.76608 4216 ft 255 kts 331°
2026-05-05 22:46 22.14329 113.75780 3911 ft 247 kts 334°
2026-05-05 22:46 22.15895 113.74991 3637 ft 250 kts 334°
2026-05-05 22:46 22.17472 113.74203 3362 ft 250 kts 335°
2026-05-05 22:46 22.19046 113.73416 3087 ft 249 kts 335°
2026-05-05 22:47 22.20612 113.72757 2817 ft 234 kts 351°
2026-05-05 22:47 22.22137 113.72947 2551 ft 221 kts 26°
2026-05-05 22:47 22.23435 113.73747 2353 ft 210 kts 36°
2026-05-05 22:47 22.24613 113.74565 2104 ft 193 kts 35°
2026-05-05 22:48 22.25715 113.75335 1986 ft 189 kts 38°
2026-05-05 22:48 22.26548 113.76382 1820 ft 183 kts 68°
2026-05-05 22:48 22.27064 113.77600 1793 ft 177 kts 67°
2026-05-05 22:48 22.27534 113.78789 1714 ft 168 kts 71°
2026-05-05 22:49 22.27911 113.79906 1706 ft 150 kts 73°
2026-05-05 22:49 22.28242 113.80929 1695 ft 146 kts 73°
2026-05-05 22:49 22.28583 113.81991 1528 ft 150 kts 73°
2026-05-05 22:49 22.28913 113.83016 1334 ft 144 kts 73°
2026-05-05 22:50 22.29240 113.84042 1155 ft 147 kts 73°
2026-05-05 22:50 22.29576 113.85105 979 ft 150 kts 70°
2026-05-05 22:50 22.29923 113.86152 784 ft 150 kts 73°
2026-05-05 22:50 22.30273 113.87214 585 ft 149 kts 72°
2026-05-05 22:51 22.30606 113.88241 391 ft 144 kts 73°
2026-05-05 22:51 22.30924 113.89257 198 ft 143 kts 73°
2026-05-05 22:51 22.31243 113.90256 45 ft 139 kts 72°
2026-05-05 22:51 22.31535 113.91162 37 ft 113 kts 71°
2026-05-05 22:52 22.31752 113.91835 35 ft 77 kts 71°
2026-05-05 22:52 22.31878 113.92227 36 ft 47 kts 70°
2026-05-05 22:52 22.31931 113.92440 36 ft 25 kts 86°
2026-05-05 22:52 22.31917 113.92625 36 ft 24 kts 99°
2026-05-05 22:53 22.31895 113.92756 36 ft 17 kts 101°
2026-05-05 22:53 22.31860 113.92820 36 ft 10 kts 147°
2026-05-05 22:53 22.31798 113.92847 36 ft 10 kts 161°
2026-05-05 22:53 22.31733 113.92871 36 ft 10 kts 161°
2026-05-05 22:54 22.31665 113.92895 36 ft 10 kts 161°
2026-05-05 22:54 22.31597 113.92922 36 ft 11 kts 160°
2026-05-05 22:54 22.31534 113.92964 34 ft 11 kts 146°
2026-05-05 22:54 22.31485 113.92990 36 ft 4 kts 156°
2026-05-05 22:55 22.31467 113.92998 36 ft 3 kts 159°
2026-05-05 22:55 22.31456 113.93003 36 ft 0 kts 159°